Time,TemperatureF,DewpointF,PressureIn,WindDirection,WindDirectionDegrees,WindSpeedMPH,WindSpeedGustMPH,Humidity,HourlyPrecipIn,Conditions,Clouds,dailyrainin,SolarRadiationWatts/m^2,SoftwareType,DateUTC
2013-03-16 00:03:00,25.0,19.0,-100.00,West,268,4.0,10.0,78,0.00,,,0.00,0.000000,,2013-03-16 04:03:00,
2013-03-16 00:10:00,23.0,17.0,-100.00,NNW,327,2.0,9.0,78,0.00,,,0.00,0.000000,,2013-03-16 04:10:00,
2013-03-16 00:33:00,23.0,17.0,-100.00,NNW,327,2.0,9.0,78,0.00,,,0.00,0.000000,,2013-03-16 04:33:00,
2013-03-16 00:43:00,23.0,17.0,-100.00,NNW,327,2.0,9.0,78,0.00,,,0.00,0.000000,,2013-03-16 04:43:00,
2013-03-16 00:53:00,23.0,17.0,-100.00,NNW,327,2.0,9.0,78,0.00,,,0.00,0.000000,,2013-03-16 04:53:00,
2013-03-16 01:03:00,23.0,17.0,-100.00,NNW,327,2.0,9.0,78,0.00,,,0.00,0.000000,,2013-03-16 05:03:00,
2013-03-16 01:10:00,21.0,15.0,-100.00,East,91,1.0,5.0,76,0.00,,,0.00,0.000000,,2013-03-16 05:10:00,
2013-03-16 01:32:00,21.0,15.0,-100.00,East,91,1.0,5.0,76,0.00,,,0.00,0.000000,,2013-03-16 05:32:00,
2013-03-16 01:42:00,21.0,15.0,-100.00,East,91,1.0,5.0,76,0.00,,,0.00,0.000000,,2013-03-16 05:42:00,
2013-03-16 01:53:00,21.0,15.0,-100.00,East,91,1.0,5.0,76,0.00,,,0.00,0.000000,,2013-03-16 05:53:00,
2013-03-16 02:02:00,21.0,15.0,-100.00,East,91,1.0,5.0,76,0.00,,,0.00,0.000000,,2013-03-16 06:02:00,
2013-03-16 02:10:00,19.0,15.0,-100.00,East,86,1.0,2.0,84,0.00,,,0.00,0.000000,,2013-03-16 06:10:00,
2013-03-16 02:32:00,19.0,15.0,-100.00,East,86,1.0,2.0,84,0.00,,,0.00,0.000000,,2013-03-16 06:32:00,
2013-03-16 02:42:00,19.0,15.0,-100.00,East,86,1.0,2.0,84,0.00,,,0.00,0.000000,,2013-03-16 06:42:00,
2013-03-16 02:52:00,19.0,15.0,-100.00,East,86,1.0,2.0,84,0.00,,,0.00,0.000000,,2013-03-16 06:52:00,
2013-03-16 03:02:00,19.0,15.0,-100.00,East,86,1.0,2.0,84,0.00,,,0.00,0.000000,,2013-03-16 07:02:00,
2013-03-16 03:10:00,20.0,17.0,-100.00,West,274,2.0,5.0,87,0.00,,,0.00,0.000000,,2013-03-16 07:10:00,
2013-03-16 03:42:00,20.0,17.0,-100.00,West,274,2.0,5.0,87,0.00,,,0.00,0.000000,,2013-03-16 07:42:00,
2013-03-16 03:53:00,20.0,17.0,-100.00,West,274,2.0,5.0,87,0.00,,,0.00,0.000000,,2013-03-16 07:53:00,
2013-03-16 04:03:00,20.0,17.0,-100.00,West,274,2.0,5.0,87,0.00,,,0.00,0.000000,,2013-03-16 08:03:00,
2013-03-16 04:10:00,21.0,18.0,-100.00,ESE,104,1.0,2.0,88,0.00,,,0.00,0.000000,,2013-03-16 08:10:00,
2013-03-16 04:42:00,21.0,18.0,-100.00,ESE,104,1.0,2.0,88,0.00,,,0.00,0.000000,,2013-03-16 08:42:00,
2013-03-16 04:52:00,21.0,18.0,-100.00,ESE,104,1.0,2.0,88,0.00,,,0.00,0.000000,,2013-03-16 08:52:00,
2013-03-16 05:02:00,21.0,18.0,-100.00,ESE,104,1.0,2.0,88,0.00,,,0.00,0.000000,,2013-03-16 09:02:00,
2013-03-16 05:10:00,21.0,17.0,-100.00,NE,47,2.0,6.0,86,0.00,,,0.00,0.000000,,2013-03-16 09:10:00,
2013-03-16 05:33:00,21.0,17.0,-100.00,NE,47,2.0,6.0,86,0.00,,,0.00,0.000000,,2013-03-16 09:33:00,
2013-03-16 05:43:00,21.0,17.0,-100.00,NE,47,2.0,6.0,86,0.00,,,0.00,0.000000,,2013-03-16 09:43:00,
2013-03-16 05:53:00,21.0,17.0,-100.00,NE,47,2.0,6.0,86,0.00,,,0.00,0.000000,,2013-03-16 09:53:00,
2013-03-16 06:03:00,21.0,17.0,-100.00,NE,47,2.0,6.0,86,0.00,,,0.00,0.000000,,2013-03-16 10:03:00,
2013-03-16 06:10:00,18.0,14.0,-100.00,NE,52,1.0,4.0,83,0.00,,,0.00,0.000000,,2013-03-16 10:10:00,
2013-03-16 06:32:00,18.0,14.0,-100.00,NE,52,1.0,4.0,83,0.00,,,0.00,0.000000,,2013-03-16 10:32:00,
2013-03-16 06:42:00,18.0,14.0,-100.00,NE,52,1.0,4.0,83,0.00,,,0.00,0.000000,,2013-03-16 10:42:00,
2013-03-16 06:53:00,18.0,14.0,-100.00,NE,52,1.0,4.0,83,0.00,,,0.00,0.000000,,2013-03-16 10:53:00,
2013-03-16 07:03:00,18.0,14.0,-100.00,NE,52,1.0,4.0,83,0.00,,,0.00,0.000000,,2013-03-16 11:03:00,
2013-03-16 07:10:00,17.0,13.0,-100.00,NE,50,1.0,4.0,84,0.00,,,0.00,0.000000,,2013-03-16 11:10:00,
2013-03-16 07:33:00,17.0,13.0,-100.00,NE,50,1.0,4.0,84,0.00,,,0.00,0.000000,,2013-03-16 11:33:00,
2013-03-16 07:43:00,17.0,13.0,-100.00,NE,50,1.0,4.0,84,0.00,,,0.00,0.000000,,2013-03-16 11:43:00,
2013-03-16 07:53:00,17.0,13.0,-100.00,NE,50,1.0,4.0,84,0.00,,,0.00,0.000000,,2013-03-16 11:53:00,
2013-03-16 08:02:00,17.0,13.0,-100.00,NE,50,1.0,4.0,84,0.00,,,0.00,0.000000,,2013-03-16 12:02:00,
2013-03-16 08:10:00,19.0,14.0,-100.00,WNW,283,2.0,6.0,81,0.00,,,0.00,10.000000,,2013-03-16 12:10:00,
2013-03-16 08:32:00,19.0,14.0,-100.00,WNW,283,2.0,6.0,81,0.00,,,0.00,10.000000,,2013-03-16 12:32:00,
2013-03-16 08:43:00,19.0,14.0,-100.00,WNW,283,2.0,6.0,81,0.00,,,0.00,10.000000,,2013-03-16 12:43:00,
2013-03-16 08:53:00,19.0,14.0,-100.00,WNW,283,2.0,6.0,81,0.00,,,0.00,10.000000,,2013-03-16 12:53:00,
2013-03-16 09:02:00,19.0,14.0,-100.00,WNW,283,2.0,6.0,81,0.00,,,0.00,10.000000,,2013-03-16 13:02:00,
2013-03-16 09:10:00,23.0,13.0,-100.00,NNW,329,3.0,7.0,64,0.00,,,0.00,30.000000,,2013-03-16 13:10:00,
2013-03-16 09:43:00,23.0,13.0,-100.00,NNW,329,3.0,7.0,64,0.00,,,0.00,30.000000,,2013-03-16 13:43:00,
2013-03-16 09:53:00,23.0,13.0,-100.00,NNW,329,3.0,7.0,64,0.00,,,0.00,30.000000,,2013-03-16 13:53:00,
2013-03-16 10:03:00,23.0,13.0,-100.00,NNW,329,3.0,7.0,64,0.00,,,0.00,30.000000,,2013-03-16 14:03:00,
2013-03-16 10:10:00,25.0,12.0,-100.00,NNW,334,3.0,6.0,57,0.03,,,0.03,69.000000,,2013-03-16 14:10:00,
2013-03-16 10:42:00,25.0,12.0,-100.00,NNW,334,3.0,6.0,57,0.03,,,0.03,69.000000,,2013-03-16 14:42:00,
2013-03-16 10:53:00,25.0,12.0,-100.00,NNW,334,3.0,6.0,57,0.03,,,0.03,69.000000,,2013-03-16 14:53:00,
2013-03-16 11:03:00,25.0,12.0,-100.00,NNW,334,3.0,6.0,57,0.03,,,0.03,69.000000,,2013-03-16 15:03:00,
2013-03-16 11:10:00,27.0,12.0,-100.00,North,351,2.0,6.0,53,0.01,,,0.04,85.000000,,2013-03-16 15:10:00,
2013-03-16 11:44:00,27.0,12.0,-100.00,North,351,2.0,6.0,53,0.01,,,0.04,85.000000,,2013-03-16 15:44:00,
2013-03-16 11:53:00,27.0,12.0,-100.00,North,351,2.0,6.0,53,0.01,,,0.04,85.000000,,2013-03-16 15:53:00,
2013-03-16 12:03:00,27.0,12.0,-100.00,North,351,2.0,6.0,53,0.01,,,0.04,85.000000,,2013-03-16 16:03:00,
2013-03-16 12:10:00,27.0,7.0,-100.00,SW,232,2.0,5.0,42,0.00,,,0.04,95.000000,,2013-03-16 16:10:00,
2013-03-16 12:43:00,27.0,7.0,-100.00,SW,232,2.0,5.0,42,0.00,,,0.04,95.000000,,2013-03-16 16:43:00,
2013-03-16 12:53:00,27.0,7.0,-100.00,SW,232,2.0,5.0,42,0.00,,,0.04,95.000000,,2013-03-16 16:53:00,
2013-03-16 13:03:00,27.0,7.0,-100.00,SW,232,2.0,5.0,42,0.00,,,0.04,95.000000,,2013-03-16 17:03:00,
2013-03-16 13:10:00,28.0,11.0,-100.00,WSW,254,3.0,10.0,48,0.00,,,0.04,115.000000,,2013-03-16 17:10:00,
2013-03-16 13:43:00,28.0,11.0,-100.00,WSW,254,3.0,10.0,48,0.00,,,0.04,115.000000,,2013-03-16 17:43:00,
2013-03-16 13:53:00,28.0,11.0,-100.00,WSW,254,3.0,10.0,48,0.00,,,0.04,115.000000,,2013-03-16 17:53:00,
2013-03-16 14:03:00,28.0,11.0,-100.00,WSW,254,3.0,10.0,48,0.00,,,0.04,115.000000,,2013-03-16 18:03:00,
2013-03-16 14:10:00,29.0,8.0,-100.00,West,278,5.0,10.0,41,0.00,,,0.04,142.000000,,2013-03-16 18:10:00,
2013-03-16 14:33:00,29.0,8.0,-100.00,West,278,5.0,10.0,41,0.00,,,0.04,142.000000,,2013-03-16 18:33:00,
2013-03-16 14:43:00,29.0,8.0,-100.00,West,278,5.0,10.0,41,0.00,,,0.04,142.000000,,2013-03-16 18:43:00,
2013-03-16 14:53:00,29.0,8.0,-100.00,West,278,5.0,10.0,41,0.00,,,0.04,142.000000,,2013-03-16 18:53:00,
2013-03-16 15:02:00,29.0,8.0,-100.00,West,278,5.0,10.0,41,0.00,,,0.04,142.000000,,2013-03-16 19:02:00,
2013-03-16 15:10:00,27.0,7.0,-100.00,WSW,245,4.0,9.0,42,0.00,,,0.04,114.000000,,2013-03-16 19:10:00,
2013-03-16 15:42:00,27.0,7.0,-100.00,WSW,245,4.0,9.0,42,0.00,,,0.04,114.000000,,2013-03-16 19:42:00,
2013-03-16 15:53:00,27.0,7.0,-100.00,WSW,245,4.0,9.0,42,0.00,,,0.04,114.000000,,2013-03-16 19:53:00,
2013-03-16 16:03:00,27.0,7.0,-100.00,WSW,245,4.0,9.0,42,0.00,,,0.04,114.000000,,2013-03-16 20:03:00,
2013-03-16 16:10:00,28.0,8.0,-100.00,West,263,4.0,9.0,42,0.00,,,0.04,92.000000,,2013-03-16 20:10:00,
2013-03-16 16:42:00,28.0,8.0,-100.00,West,263,4.0,9.0,42,0.00,,,0.04,92.000000,,2013-03-16 20:42:00,
2013-03-16 16:53:00,28.0,8.0,-100.00,West,263,4.0,9.0,42,0.00,,,0.04,92.000000,,2013-03-16 20:53:00,
2013-03-16 17:02:00,28.0,8.0,-100.00,West,263,4.0,9.0,42,0.00,,,0.04,92.000000,,2013-03-16 21:02:00,
2013-03-16 17:10:00,28.0,7.0,-100.00,NNW,327,2.0,10.0,40,0.00,,,0.04,71.000000,,2013-03-16 21:10:00,
2013-03-16 17:43:00,28.0,7.0,-100.00,NNW,327,2.0,10.0,40,0.00,,,0.04,71.000000,,2013-03-16 21:43:00,
2013-03-16 17:53:00,28.0,7.0,-100.00,NNW,327,2.0,10.0,40,0.00,,,0.04,71.000000,,2013-03-16 21:53:00,
2013-03-16 18:03:00,28.0,7.0,-100.00,NNW,327,2.0,10.0,40,0.00,,,0.04,71.000000,,2013-03-16 22:03:00,
2013-03-16 18:10:00,26.0,7.0,-100.00,WNW,283,2.0,8.0,44,0.00,,,0.04,42.000000,,2013-03-16 22:10:00,
2013-03-16 18:33:00,26.0,7.0,-100.00,WNW,283,2.0,8.0,44,0.00,,,0.04,42.000000,,2013-03-16 22:33:00,
2013-03-16 18:42:00,26.0,7.0,-100.00,WNW,283,2.0,8.0,44,0.00,,,0.04,42.000000,,2013-03-16 22:42:00,
2013-03-16 18:53:00,26.0,7.0,-100.00,WNW,283,2.0,8.0,44,0.00,,,0.04,42.000000,,2013-03-16 22:53:00,
2013-03-16 19:02:00,26.0,7.0,-100.00,WNW,283,2.0,8.0,44,0.00,,,0.04,42.000000,,2013-03-16 23:02:00,
2013-03-16 19:10:00,23.0,7.0,-100.00,West,271,2.0,7.0,50,0.00,,,0.04,5.000000,,2013-03-16 23:10:00,
2013-03-16 19:43:00,23.0,7.0,-100.00,West,271,2.0,7.0,50,0.00,,,0.04,5.000000,,2013-03-16 23:43:00,
2013-03-16 19:53:00,23.0,7.0,-100.00,West,271,2.0,7.0,50,0.00,,,0.04,5.000000,,2013-03-16 23:53:00,
2013-03-16 20:02:00,23.0,7.0,-100.00,West,271,2.0,7.0,50,0.00,,,0.04,5.000000,,2013-03-17 00:02:00,
2013-03-16 21:10:00,20.0,7.0,-100.00,WSW,248,1.0,2.0,56,-99.99,,,0.04,0.000000,,2013-03-17 01:10:00,
2013-03-16 21:43:00,20.0,7.0,-100.00,WSW,248,1.0,2.0,56,-99.99,,,0.04,0.000000,,2013-03-17 01:43:00,
2013-03-16 21:53:00,20.0,7.0,-100.00,WSW,248,1.0,2.0,56,-99.99,,,0.04,0.000000,,2013-03-17 01:53:00,
2013-03-16 22:03:00,20.0,7.0,-100.00,WSW,248,1.0,2.0,56,-99.99,,,0.04,0.000000,,2013-03-17 02:03:00,
2013-03-16 22:10:00,17.0,6.0,-100.00,ESE,105,2.0,2.0,61,0.00,,,0.04,0.000000,,2013-03-17 02:10:00,
2013-03-16 22:43:00,17.0,6.0,-100.00,ESE,105,2.0,2.0,61,0.00,,,0.04,0.000000,,2013-03-17 02:43:00,
2013-03-16 22:53:00,17.0,6.0,-100.00,ESE,105,2.0,2.0,61,0.00,,,0.04,0.000000,,2013-03-17 02:53:00,
2013-03-16 23:03:00,17.0,6.0,-100.00,ESE,105,2.0,2.0,61,0.00,,,0.04,0.000000,,2013-03-17 03:03:00,
2013-03-16 23:10:00,13.0,5.0,-100.00,East,97,1.0,2.0,71,0.00,,,0.04,0.000000,,2013-03-17 03:10:00,
2013-03-16 23:34:00,13.0,5.0,-100.00,East,97,1.0,2.0,71,0.00,,,0.04,0.000000,,2013-03-17 03:34:00,
2013-03-16 23:43:00,13.0,5.0,-100.00,East,97,1.0,2.0,71,0.00,,,0.04,0.000000,,2013-03-17 03:43:00,
2013-03-16 23:53:00,13.0,5.0,-100.00,East,97,1.0,2.0,71,0.00,,,0.04,0.000000,,2013-03-17 03:53:00,